,,PA_Meas_PMT16A,,PR_Meas_QMR101_102,,RH_Meas_QMH101,,SR_Meas_QMS101,,TA_Meas_QMH101,,GenWind,,GenWind,
time,status,PA,status,PR,status,RH,status,SR,status,TA,status,DirAvg,status,SpdAvg,
2014-10-09, 00:00:04,VALID,918.926,VALID,0,VALID,95.7349,VALID,0,VALID,20.8925,VALID,8,VALID,0,
2014-10-09, 00:01:04,VALID,918.922,VALID,0,VALID,95.2851,VALID,0,VALID,20.756,VALID,8,VALID,0,
2014-10-09, 00:02:04,VALID,918.93,VALID,0,VALID,95.1555,VALID,0,VALID,20.7185,VALID,8,VALID,0,
2014-10-09, 00:03:04,VALID,918.952,VALID,0,VALID,95.3079,VALID,0,VALID,20.6585,VALID,8,VALID,0,
2014-10-09, 00:04:04,VALID,918.946,VALID,0,VALID,95.3842,VALID,0,VALID,20.5999,VALID,8,VALID,0,
2014-10-09, 00:05:04,VALID,918.928,VALID,0,VALID,95.6053,VALID,0,VALID,20.5999,VALID,8,VALID,0,
2014-10-09, 00:06:04,VALID,918.938,VALID,0,VALID,95.7501,VALID,0,VALID,20.5999,VALID,8,VALID,0,
2014-10-09, 00:07:04,VALID,918.942,VALID,0,VALID,95.8568,VALID,0,VALID,20.5594,VALID,8,VALID,0,
2014-10-09, 00:08:04,VALID,918.916,VALID,0,VALID,95.8797,VALID,0,VALID,20.5219,VALID,8,VALID,0,
2014-10-09, 00:09:04,VALID,918.91,VALID,0,VALID,95.9331,VALID,0,VALID,20.4618,VALID,8,VALID,0,
2014-10-09, 00:10:04,VALID,918.855,VALID,0,VALID,95.9788,VALID,0,VALID,20.4423,VALID,121,VALID,0,
2014-10-09, 00:11:04,VALID,918.836,VALID,0,VALID,96.0703,VALID,0,VALID,20.4618,VALID,122,VALID,0,
2014-10-09, 00:12:04,VALID,918.779,VALID,0,VALID,96.1618,VALID,0,VALID,20.4423,VALID,121,VALID,0,
2014-10-09, 00:13:04,VALID,918.741,VALID,0,VALID,96.2075,VALID,0,VALID,20.4228,VALID,121,VALID,0,
2014-10-09, 00:14:04,VALID,918.736,VALID,0,VALID,96.2456,VALID,0.107441,VALID,20.4228,VALID,121,VALID,0,
2014-10-09, 00:15:04,VALID,918.726,VALID,0,VALID,96.3219,VALID,0.107441,VALID,20.4439,VALID,121,VALID,0,
2014-10-09, 00:16:04,VALID,918.716,VALID,0,VALID,96.36,VALID,0.107441,VALID,20.4423,VALID,121,VALID,0,
2014-10-09, 00:17:04,VALID,918.705,VALID,0,VALID,96.4057,VALID,0.107441,VALID,20.4423,VALID,121,VALID,0,
2014-10-09, 00:18:04,VALID,918.708,VALID,0,VALID,96.4438,VALID,0.107441,VALID,20.4423,VALID,121,VALID,0,
2014-10-09, 00:19:04,VALID,918.663,VALID,0,VALID,96.4591,VALID,0,VALID,20.4033,VALID,121,VALID,0,
2014-10-09, 00:20:04,VALID,918.643,VALID,0,VALID,96.4438,VALID,0,VALID,20.3643,VALID,121,VALID,0,
2014-10-09, 00:21:04,VALID,918.611,VALID,0,VALID,96.4591,VALID,0,VALID,20.3253,VALID,121,VALID,0,
2014-10-09, 00:22:04,VALID,918.631,VALID,0,VALID,96.4896,VALID,0,VALID,20.3269,VALID,121,VALID,0,
2014-10-09, 00:23:04,VALID,918.651,VALID,0,VALID,96.5124,VALID,0,VALID,20.3269,VALID,121,VALID,0,
2014-10-09, 00:24:04,VALID,918.618,VALID,0,VALID,96.5506,VALID,0.107441,VALID,20.3269,VALID,121,VALID,0,
2014-10-09, 00:25:04,VALID,918.622,VALID,0,VALID,96.5734,VALID,0,VALID,20.3058,VALID,121,VALID,0,
2014-10-09, 00:26:04,VALID,918.627,VALID,0,VALID,96.6115,VALID,0,VALID,20.3058,VALID,121,VALID,0,
2014-10-09, 00:27:04,VALID,918.619,VALID,0,VALID,96.5811,VALID,0,VALID,20.2684,VALID,121,VALID,0,
2014-10-09, 00:28:04,VALID,918.613,VALID,0,VALID,96.4286,VALID,0,VALID,20.1318,VALID,121,VALID,0,
2014-10-09, 00:29:04,VALID,918.578,VALID,0,VALID,96.421,VALID,0,VALID,20.0928,VALID,121,VALID,0,
2014-10-09, 00:30:04,VALID,918.547,VALID,0,VALID,96.4743,VALID,0,VALID,20.0718,VALID,121,VALID,0,
2014-10-09, 00:31:04,VALID,918.565,VALID,0,VALID,96.5277,VALID,0.107441,VALID,20.0913,VALID,121,VALID,0,
2014-10-09, 00:32:04,VALID,918.543,VALID,0,VALID,96.5811,VALID,0,VALID,20.0523,VALID,117,VALID,0,
2014-10-09, 00:33:04,VALID,918.547,VALID,0,VALID,96.6344,VALID,0,VALID,20.0538,VALID,112,VALID,0,
2014-10-09, 00:34:04,VALID,918.539,VALID,0,VALID,96.6344,VALID,0,VALID,20.0148,VALID,112,VALID,0,
2014-10-09, 00:35:04,VALID,918.515,VALID,0,VALID,96.6573,VALID,0,VALID,19.9758,VALID,112,VALID,0,
2014-10-09, 00:36:04,VALID,918.511,VALID,0,VALID,96.6649,VALID,0,VALID,19.9773,VALID,112,VALID,0,
2014-10-09, 00:37:04,VALID,918.462,VALID,0,VALID,96.7183,VALID,0,VALID,20.0163,VALID,112,VALID,0,
2014-10-09, 00:38:04,VALID,918.418,VALID,0,VALID,96.7716,VALID,0,VALID,20.0538,VALID,112,VALID,0,
2014-10-09, 00:39:04,VALID,918.383,VALID,0,VALID,96.8098,VALID,0,VALID,20.1139,VALID,112,VALID,0,
2014-10-09, 00:40:04,VALID,918.317,VALID,0,VALID,96.8326,VALID,0,VALID,20.0749,VALID,112,VALID,0,
2014-10-09, 00:41:04,VALID,918.276,VALID,0,VALID,96.8631,VALID,0,VALID,20.0749,VALID,112,VALID,0,
2014-10-09, 00:42:04,VALID,918.234,VALID,0,VALID,96.8631,VALID,0,VALID,20.0944,VALID,112,VALID,0,
2014-10-09, 00:43:04,VALID,918.24,VALID,0,VALID,96.8707,VALID,0,VALID,20.0733,VALID,112,VALID,0,
2014-10-09, 00:44:04,VALID,918.222,VALID,0,VALID,96.9089,VALID,0,VALID,20.0944,VALID,112,VALID,0,
2014-10-09, 00:45:04,VALID,918.201,VALID,0,VALID,96.886,VALID,0,VALID,20.0553,VALID,112,VALID,0,
2014-10-09, 00:46:04,VALID,918.213,VALID,0,VALID,96.9165,VALID,0,VALID,20.0553,VALID,112,VALID,0,
2014-10-09, 00:47:04,VALID,918.199,VALID,0,VALID,96.9165,VALID,0,VALID,20.0553,VALID,112,VALID,0,
2014-10-09, 00:48:04,VALID,918.204,VALID,0,VALID,96.9317,VALID,0,VALID,20.1334,VALID,112,VALID,0,
2014-10-09, 00:49:04,VALID,918.155,VALID,0,VALID,96.9775,VALID,0,VALID,20.1318,VALID,112,VALID,0,
2014-10-09, 00:50:04,VALID,918.13,VALID,0,VALID,96.9775,VALID,0,VALID,20.1318,VALID,112,VALID,0,
2014-10-09, 00:51:04,VALID,918.128,VALID,0,VALID,97.0003,VALID,0,VALID,20.1318,VALID,112,VALID,0,
2014-10-09, 00:52:04,VALID,918.082,VALID,0,VALID,97.0156,VALID,0,VALID,20.0928,VALID,112,VALID,0,
2014-10-09, 00:53:04,VALID,918.106,VALID,0,VALID,97.008,VALID,0,VALID,20.0538,VALID,112,VALID,0,
2014-10-09, 00:54:04,VALID,918.1,VALID,0,VALID,96.9851,VALID,0,VALID,19.9953,VALID,112,VALID,0,
2014-10-09, 00:55:04,VALID,918.117,VALID,0,VALID,97.0003,VALID,0,VALID,19.9953,VALID,112,VALID,0,
2014-10-09, 00:56:04,VALID,918.136,VALID,0,VALID,97.0232,VALID,0,VALID,19.9953,VALID,112,VALID,0,
2014-10-09, 00:57:04,VALID,918.123,VALID,0,VALID,97.0308,VALID,0,VALID,20.0343,VALID,112,VALID,0,
2014-10-09, 00:58:04,VALID,918.136,VALID,0,VALID,97.0232,VALID,0,VALID,20.0343,VALID,112,VALID,0,
2014-10-09, 00:59:04,VALID,918.095,VALID,0,VALID,97.0461,VALID,0,VALID,20.0343,VALID,112,VALID,0,
2014-10-09, 01:00:04,VALID,918.085,VALID,0,VALID,97.069,VALID,0,VALID,20.0148,VALID,112,VALID,0,
2014-10-09, 01:01:04,VALID,918.068,VALID,0,VALID,97.0766,VALID,0,VALID,20.0733,VALID,121,VALID,0,
2014-10-09, 01:02:04,VALID,918.053,VALID,0,VALID,97.0842,VALID,0,VALID,20.0928,VALID,121,VALID,0,
2014-10-09, 01:03:04,VALID,918.034,VALID,0,VALID,97.0918,VALID,0,VALID,20.0928,VALID,121,VALID,0,
2014-10-09, 01:04:04,VALID,918.002,VALID,0,VALID,97.1071,VALID,0,VALID,20.0928,VALID,121,VALID,0,
2014-10-09, 01:05:04,VALID,917.999,VALID,0,VALID,97.1299,VALID,0,VALID,20.0928,VALID,121,VALID,0,
2014-10-09, 01:06:04,VALID,917.961,VALID,0,VALID,97.1299,VALID,0,VALID,20.1123,VALID,121,VALID,0,
2014-10-09, 01:07:04,VALID,917.97,VALID,0,VALID,97.1299,VALID,0,VALID,20.1318,VALID,121,VALID,0,
2014-10-09, 01:08:04,VALID,917.966,VALID,0,VALID,97.1452,VALID,0,VALID,20.1318,VALID,121,VALID,0,
2014-10-09, 01:09:04,VALID,917.984,VALID,0,VALID,97.1604,VALID,0,VALID,20.1513,VALID,121,VALID,0,
2014-10-09, 01:10:04,VALID,917.986,VALID,0,VALID,97.1681,VALID,0,VALID,20.1708,VALID,121,VALID,0,
2014-10-09, 01:11:04,VALID,917.975,VALID,0,VALID,97.1604,VALID,0,VALID,20.1903,VALID,121,VALID,0,
2014-10-09, 01:12:04,VALID,917.999,VALID,0,VALID,97.1681,VALID,0,VALID,20.2293,VALID,121,VALID,0,
2014-10-09, 01:13:04,VALID,917.978,VALID,0,VALID,97.2062,VALID,0,VALID,20.2684,VALID,121,VALID,0,
2014-10-09, 01:14:04,VALID,917.975,VALID,0,VALID,97.1909,VALID,0,VALID,20.3074,VALID,122,VALID,0,
2014-10-09, 01:15:04,VALID,917.988,VALID,0,VALID,97.2138,VALID,0.107441,VALID,20.3464,VALID,121,VALID,0,
2014-10-09, 01:16:04,VALID,918.01,VALID,0,VALID,97.2062,VALID,0,VALID,20.3253,VALID,121,VALID,0,
2014-10-09, 01:17:04,VALID,917.987,VALID,0,VALID,97.1986,VALID,0,VALID,20.3854,VALID,121,VALID,0,
2014-10-09, 01:18:04,VALID,917.964,VALID,0,VALID,97.2138,VALID,0,VALID,20.3854,VALID,121,VALID,0,
2014-10-09, 01:19:04,VALID,917.956,VALID,0,VALID,97.2214,VALID,0,VALID,20.4049,VALID,122,VALID,0,
2014-10-09, 01:20:04,VALID,917.946,VALID,0,VALID,97.2062,VALID,0,VALID,20.3854,VALID,127,VALID,0,
2014-10-09, 01:21:04,VALID,917.953,VALID,0,VALID,97.2138,VALID,0.107441,VALID,20.3838,VALID,162,VALID,0.273828,
2014-10-09, 01:22:04,VALID,917.888,VALID,0,VALID,97.229,VALID,0,VALID,20.4244,VALID,163,VALID,0,
2014-10-09, 01:23:04,VALID,917.865,VALID,0,VALID,97.2138,VALID,0,VALID,20.4244,VALID,156,VALID,0,
2014-10-09, 01:24:04,VALID,917.871,VALID,0,VALID,97.2519,VALID,0,VALID,20.4244,VALID,139,VALID,0,
2014-10-09, 01:25:04,VALID,917.827,VALID,0,VALID,97.2595,VALID,0,VALID,20.3838,VALID,137,VALID,0,
2014-10-09, 01:26:05,VALID,917.816,VALID,0,VALID,97.2367,VALID,0,VALID,20.3854,VALID,133,VALID,0,
2014-10-09, 01:27:05,VALID,917.767,VALID,0,VALID,97.2519,VALID,0,VALID,20.3854,VALID,156,VALID,0,
2014-10-09, 01:28:05,VALID,917.753,VALID,0,VALID,97.2443,VALID,0,VALID,20.3448,VALID,134,VALID,0,
2014-10-09, 01:29:05,VALID,917.76,VALID,0,VALID,97.2748,VALID,0,VALID,20.3659,VALID,138,VALID,0,
2014-10-09, 01:30:05,VALID,917.729,VALID,0,VALID,97.2595,VALID,0,VALID,20.3464,VALID,128,VALID,0,
2014-10-09, 01:31:05,VALID,917.699,VALID,0,VALID,97.2672,VALID,0,VALID,20.3058,VALID,129,VALID,0,
2014-10-09, 01:32:05,VALID,917.709,VALID,0,VALID,97.2748,VALID,0,VALID,20.3074,VALID,129,VALID,0,
2014-10-09, 01:33:05,VALID,917.655,VALID,0,VALID,97.2672,VALID,0,VALID,20.2879,VALID,129,VALID,0,
2014-10-09, 01:34:05,VALID,917.666,VALID,0,VALID,97.2977,VALID,0,VALID,20.2879,VALID,129,VALID,0,
2014-10-09, 01:35:05,VALID,917.636,VALID,0,VALID,97.2748,VALID,0,VALID,20.2684,VALID,129,VALID,0,
2014-10-09, 01:36:05,VALID,917.664,VALID,0,VALID,97.3205,VALID,0,VALID,20.2293,VALID,129,VALID,0,
2014-10-09, 01:37:05,VALID,917.636,VALID,0,VALID,97.3053,VALID,0,VALID,20.2293,VALID,129,VALID,0,
2014-10-09, 01:38:05,VALID,917.641,VALID,0,VALID,97.3053,VALID,0,VALID,20.2293,VALID,129,VALID,0,
2014-10-09, 01:39:05,VALID,917.67,VALID,0,VALID,97.2977,VALID,0,VALID,20.2114,VALID,129,VALID,0,
2014-10-09, 01:40:05,VALID,917.666,VALID,0,VALID,97.3205,VALID,0,VALID,20.2309,VALID,129,VALID,0,
2014-10-09, 01:41:05,VALID,917.632,VALID,0,VALID,97.3053,VALID,0,VALID,20.1903,VALID,132,VALID,0,
2014-10-09, 01:42:05,VALID,917.598,VALID,0,VALID,97.3053,VALID,0,VALID,20.2309,VALID,134,VALID,0,
2014-10-09, 01:43:05,VALID,917.567,VALID,0,VALID,97.3129,VALID,0,VALID,20.2114,VALID,133,VALID,0,
2014-10-09, 01:44:05,VALID,917.551,VALID,0,VALID,97.3205,VALID,0,VALID,20.1724,VALID,126,VALID,0,
2014-10-09, 01:45:05,VALID,917.55,VALID,0,VALID,97.3358,VALID,0,VALID,20.1529,VALID,124,VALID,0,
2014-10-09, 01:46:05,VALID,917.505,VALID,0,VALID,97.3205,VALID,0,VALID,20.0749,VALID,122,VALID,0,
2014-10-09, 01:47:05,VALID,917.533,VALID,0,VALID,97.3205,VALID,0,VALID,20.0944,VALID,122,VALID,0,
2014-10-09, 01:48:05,VALID,917.535,VALID,0,VALID,97.3205,VALID,0,VALID,20.0928,VALID,122,VALID,0,
2014-10-09, 01:49:05,VALID,917.543,VALID,0,VALID,97.3281,VALID,0,VALID,20.0959,VALID,122,VALID,0,
2014-10-09, 01:50:05,VALID,917.563,VALID,0,VALID,97.3205,VALID,0,VALID,20.0749,VALID,122,VALID,0,
2014-10-09, 01:51:05,VALID,917.558,VALID,0,VALID,97.3358,VALID,0,VALID,20.0733,VALID,122,VALID,0,
2014-10-09, 01:52:05,VALID,917.59,VALID,0,VALID,97.3434,VALID,0,VALID,20.0553,VALID,122,VALID,0,
2014-10-09, 01:53:05,VALID,917.562,VALID,0,VALID,97.3358,VALID,0,VALID,20.0553,VALID,122,VALID,0,
2014-10-09, 01:54:05,VALID,917.563,VALID,0,VALID,97.351,VALID,0,VALID,20.0553,VALID,122,VALID,0,
2014-10-09, 01:55:05,VALID,917.558,VALID,0,VALID,97.351,VALID,0,VALID,20.0148,VALID,122,VALID,0,
2014-10-09, 01:56:05,VALID,917.541,VALID,0,VALID,97.3586,VALID,0,VALID,20.0553,VALID,122,VALID,0,
2014-10-09, 01:57:05,VALID,917.52,VALID,0,VALID,97.3663,VALID,0,VALID,20.0358,VALID,122,VALID,0,
2014-10-09, 01:58:05,VALID,917.487,VALID,0,VALID,97.3434,VALID,0,VALID,20.0148,VALID,122,VALID,0,
2014-10-09, 01:59:05,VALID,917.46,VALID,0,VALID,97.351,VALID,0,VALID,20.0163,VALID,123,VALID,0,
2014-10-09, 02:00:05,VALID,917.457,VALID,0,VALID,97.3663,VALID,0,VALID,19.9953,VALID,123,VALID,0,
2014-10-09, 02:01:05,VALID,917.43,VALID,0,VALID,97.3739,VALID,0,VALID,19.9968,VALID,123,VALID,0,
2014-10-09, 02:02:05,VALID,917.412,VALID,0,VALID,97.3739,VALID,0,VALID,19.9578,VALID,123,VALID,0,
2014-10-09, 02:03:05,VALID,917.421,VALID,0,VALID,97.3663,VALID,0,VALID,19.9188,VALID,122,VALID,0,
2014-10-09, 02:04:05,VALID,917.397,VALID,0,VALID,97.3891,VALID,0,VALID,19.8993,VALID,122,VALID,0,
2014-10-09, 02:05:05,VALID,917.4,VALID,0,VALID,97.3968,VALID,0,VALID,19.8408,VALID,123,VALID,0,
2014-10-09, 02:06:05,VALID,917.408,VALID,0,VALID,97.3968,VALID,0,VALID,19.8198,VALID,123,VALID,0,
2014-10-09, 02:07:05,VALID,917.387,VALID,0,VALID,97.3891,VALID,0,VALID,19.8183,VALID,85,VALID,0.00195313,
2014-10-09, 02:08:05,VALID,917.391,VALID,0,VALID,97.3815,VALID,0,VALID,19.7988,VALID,85,VALID,0,
2014-10-09, 02:09:05,VALID,917.384,VALID,0,VALID,97.3968,VALID,0,VALID,19.8378,VALID,95,VALID,0,
2014-10-09, 02:10:05,VALID,917.364,VALID,0,VALID,97.3739,VALID,0,VALID,19.8003,VALID,97,VALID,0,
2014-10-09, 02:11:05,VALID,917.359,VALID,0,VALID,97.3968,VALID,0,VALID,19.8393,VALID,77,VALID,0,
2014-10-09, 02:12:05,VALID,917.348,VALID,0,VALID,97.4044,VALID,0,VALID,19.8003,VALID,77,VALID,0,
2014-10-09, 02:13:05,VALID,917.321,VALID,0,VALID,97.4196,VALID,0,VALID,19.8003,VALID,77,VALID,0,
2014-10-09, 02:14:05,VALID,917.304,VALID,0,VALID,97.4044,VALID,0,VALID,19.7808,VALID,77,VALID,0,
2014-10-09, 02:15:05,VALID,917.265,VALID,0,VALID,97.3891,VALID,0,VALID,19.7793,VALID,77,VALID,0,
2014-10-09, 02:16:05,VALID,917.278,VALID,0,VALID,97.412,VALID,0,VALID,19.8003,VALID,77,VALID,0,
2014-10-09, 02:17:05,VALID,917.26,VALID,0,VALID,97.412,VALID,0,VALID,19.8003,VALID,77,VALID,0,
2014-10-09, 02:18:05,VALID,917.226,VALID,0,VALID,97.4349,VALID,0,VALID,19.8198,VALID,77,VALID,0,
2014-10-09, 02:19:05,VALID,917.245,VALID,0,VALID,97.4044,VALID,0,VALID,19.8393,VALID,77,VALID,0,
2014-10-09, 02:20:05,VALID,917.221,VALID,0,VALID,97.4196,VALID,0,VALID,19.8198,VALID,77,VALID,0,
2014-10-09, 02:21:05,VALID,917.208,VALID,0,VALID,97.412,VALID,0,VALID,19.8198,VALID,77,VALID,0,
2014-10-09, 02:22:05,VALID,917.168,VALID,0,VALID,97.4273,VALID,0,VALID,19.8198,VALID,77,VALID,0,
2014-10-09, 02:23:05,VALID,917.163,VALID,0,VALID,97.4196,VALID,0,VALID,19.8393,VALID,77,VALID,0,
2014-10-09, 02:24:05,VALID,917.169,VALID,0,VALID,97.4196,VALID,0,VALID,19.8198,VALID,77,VALID,0,
2014-10-09, 02:25:05,VALID,917.117,VALID,0,VALID,97.4349,VALID,0,VALID,19.8018,VALID,77,VALID,0,
2014-10-09, 02:26:05,VALID,917.111,VALID,0,VALID,97.4425,VALID,0,VALID,19.8198,VALID,77,VALID,0,
2014-10-09, 02:27:05,VALID,917.102,VALID,0,VALID,97.4273,VALID,0,VALID,19.8198,VALID,77,VALID,0,
2014-10-09, 02:28:05,VALID,917.076,VALID,0,VALID,97.4349,VALID,0,VALID,19.8198,VALID,77,VALID,0,
2014-10-09, 02:29:05,VALID,917.101,VALID,0,VALID,97.4273,VALID,0,VALID,19.8003,VALID,77,VALID,0,
2014-10-09, 02:30:05,VALID,917.091,VALID,0,VALID,97.4577,VALID,0,VALID,19.6638,VALID,77,VALID,0,
2014-10-09, 02:31:05,VALID,917.104,VALID,0,VALID,97.4654,VALID,0,VALID,19.5273,VALID,77,VALID,0,
2014-10-09, 02:32:05,VALID,917.154,VALID,0,VALID,97.4425,VALID,0,VALID,19.5468,VALID,77,VALID,0,
2014-10-09, 02:33:05,VALID,917.137,VALID,0,VALID,97.4425,VALID,0,VALID,19.5858,VALID,77,VALID,0,
2014-10-09, 02:34:05,VALID,917.128,VALID,0,VALID,97.4425,VALID,0,VALID,19.5858,VALID,77,VALID,0,
2014-10-09, 02:35:05,VALID,917.116,VALID,0,VALID,97.4577,VALID,0,VALID,19.5663,VALID,77,VALID,0,
2014-10-09, 02:36:05,VALID,917.099,VALID,0,VALID,97.4501,VALID,0,VALID,19.5678,VALID,77,VALID,0,
2014-10-09, 02:37:05,VALID,917.11,VALID,0,VALID,97.4501,VALID,0,VALID,19.5468,VALID,77,VALID,0,
2014-10-09, 02:38:05,VALID,917.113,VALID,0,VALID,97.4425,VALID,0,VALID,19.5273,VALID,77,VALID,0,
2014-10-09, 02:39:05,VALID,917.092,VALID,0,VALID,97.4501,VALID,0,VALID,19.5273,VALID,77,VALID,0,
2014-10-09, 02:40:05,VALID,917.077,VALID,0,VALID,97.4654,VALID,0,VALID,19.5078,VALID,77,VALID,0,
2014-10-09, 02:41:05,VALID,917.045,VALID,0,VALID,97.4501,VALID,0,VALID,19.4883,VALID,77,VALID,0,
2014-10-09, 02:42:05,VALID,917.076,VALID,0,VALID,97.4501,VALID,0,VALID,19.5468,VALID,77,VALID,0,
2014-10-09, 02:43:05,VALID,917.035,VALID,0,VALID,97.4654,VALID,0,VALID,19.5873,VALID,77,VALID,0,
2014-10-09, 02:44:05,VALID,917.038,VALID,0,VALID,97.4806,VALID,0,VALID,19.5483,VALID,77,VALID,0,
2014-10-09, 02:45:05,VALID,917.005,VALID,0,VALID,97.473,VALID,0,VALID,19.5678,VALID,84,VALID,0,
2014-10-09, 02:46:05,VALID,916.997,VALID,0,VALID,97.4577,VALID,0.107441,VALID,19.5468,VALID,85,VALID,0,
2014-10-09, 02:47:05,VALID,916.979,VALID,0,VALID,97.4806,VALID,0,VALID,19.5273,VALID,85,VALID,0,
2014-10-09, 02:48:05,VALID,917.013,VALID,0,VALID,97.4806,VALID,0,VALID,19.5273,VALID,85,VALID,0,
2014-10-09, 02:49:05,VALID,917.004,VALID,0,VALID,97.4654,VALID,0,VALID,19.5288,VALID,85,VALID,0,
2014-10-09, 02:50:05,VALID,917.008,VALID,0,VALID,97.4577,VALID,0,VALID,19.4898,VALID,85,VALID,0,
2014-10-09, 02:51:05,VALID,917.033,VALID,0,VALID,97.473,VALID,0,VALID,19.4883,VALID,85,VALID,0,
2014-10-09, 02:52:05,VALID,916.974,VALID,0,VALID,97.4882,VALID,0,VALID,19.5093,VALID,85,VALID,0,
2014-10-09, 02:53:05,VALID,916.968,VALID,0,VALID,97.4806,VALID,0,VALID,19.4493,VALID,85,VALID,0,
2014-10-09, 02:54:05,VALID,916.929,VALID,0,VALID,97.5035,VALID,0,VALID,19.3518,VALID,85,VALID,0,
2014-10-09, 02:55:05,VALID,916.911,VALID,0,VALID,97.4959,VALID,0,VALID,19.3728,VALID,85,VALID,0,
2014-10-09, 02:56:05,VALID,916.922,VALID,0,VALID,97.4654,VALID,0,VALID,19.3923,VALID,85,VALID,0,
2014-10-09, 02:57:05,VALID,916.942,VALID,0,VALID,97.4501,VALID,0,VALID,19.4508,VALID,85,VALID,0,
2014-10-09, 02:58:05,VALID,917.024,VALID,0,VALID,97.4501,VALID,0,VALID,19.4688,VALID,85,VALID,0,
2014-10-09, 02:59:05,VALID,917.014,VALID,0,VALID,97.473,VALID,0,VALID,19.4688,VALID,85,VALID,0,
2014-10-09, 03:00:05,VALID,917.031,VALID,0,VALID,97.4654,VALID,0,VALID,19.5288,VALID,85,VALID,0,
2014-10-09, 03:01:05,VALID,917.074,VALID,0,VALID,97.4425,VALID,0,VALID,19.5273,VALID,85,VALID,0,
2014-10-09, 03:02:05,VALID,917.05,VALID,0,VALID,97.4654,VALID,0,VALID,19.5663,VALID,85,VALID,0,
2014-10-09, 03:03:05,VALID,917.046,VALID,0,VALID,97.4806,VALID,0,VALID,19.5663,VALID,85,VALID,0,
2014-10-09, 03:04:05,VALID,917.041,VALID,0,VALID,97.4577,VALID,0,VALID,19.5678,VALID,86,VALID,0,
2014-10-09, 03:05:05,VALID,917.025,VALID,0,VALID,97.473,VALID,0,VALID,19.5873,VALID,119,VALID,0,
2014-10-09, 03:06:05,VALID,917.027,VALID,0,VALID,97.473,VALID,0,VALID,19.5663,VALID,120,VALID,0,
2014-10-09, 03:07:05,VALID,917.022,VALID,0,VALID,97.473,VALID,0,VALID,19.5858,VALID,119,VALID,0,
2014-10-09, 03:08:05,VALID,917.025,VALID,0,VALID,97.4806,VALID,0,VALID,19.6263,VALID,120,VALID,0,
2014-10-09, 03:09:05,VALID,917.04,VALID,0,VALID,97.4501,VALID,0,VALID,19.6263,VALID,119,VALID,0,
2014-10-09, 03:10:05,VALID,917.02,VALID,0,VALID,97.4654,VALID,0,VALID,19.6248,VALID,119,VALID,0,
2014-10-09, 03:11:05,VALID,916.995,VALID,0,VALID,97.473,VALID,0,VALID,19.6458,VALID,119,VALID,0,
2014-10-09, 03:12:05,VALID,916.998,VALID,0,VALID,97.4654,VALID,0,VALID,19.6248,VALID,119,VALID,0,
2014-10-09, 03:13:05,VALID,917.025,VALID,0,VALID,97.4501,VALID,0,VALID,19.6248,VALID,119,VALID,0,
2014-10-09, 03:14:05,VALID,917.036,VALID,0,VALID,97.4425,VALID,0,VALID,19.6248,VALID,119,VALID,0,
2014-10-09, 03:15:05,VALID,917.031,VALID,0,VALID,97.4425,VALID,0,VALID,19.6458,VALID,119,VALID,0,
2014-10-09, 03:16:05,VALID,917.016,VALID,0,VALID,97.4425,VALID,0,VALID,19.6653,VALID,119,VALID,0,
2014-10-09, 03:17:05,VALID,917.038,VALID,0,VALID,97.4196,VALID,0,VALID,19.6653,VALID,119,VALID,0,
2014-10-09, 03:18:05,VALID,917.052,VALID,0,VALID,97.412,VALID,0,VALID,19.6248,VALID,119,VALID,0,
2014-10-09, 03:19:05,VALID,917.037,VALID,0,VALID,97.3891,VALID,0,VALID,19.6458,VALID,119,VALID,0,
2014-10-09, 03:20:05,VALID,917.019,VALID,0,VALID,97.3739,VALID,0,VALID,19.6443,VALID,119,VALID,0,
2014-10-09, 03:21:05,VALID,916.998,VALID,0,VALID,97.3586,VALID,0,VALID,19.6653,VALID,119,VALID,0,
2014-10-09, 03:22:05,VALID,917.03,VALID,0,VALID,97.3663,VALID,0,VALID,19.6458,VALID,119,VALID,0,
2014-10-09, 03:23:05,VALID,916.994,VALID,0,VALID,97.3281,VALID,0,VALID,19.6068,VALID,119,VALID,0,
2014-10-09, 03:24:05,VALID,916.989,VALID,0,VALID,97.2977,VALID,0,VALID,19.6263,VALID,119,VALID,0,
2014-10-09, 03:25:05,VALID,916.955,VALID,0,VALID,97.29,VALID,0,VALID,19.6653,VALID,119,VALID,0,
2014-10-09, 03:26:05,VALID,916.97,VALID,0,VALID,97.3053,VALID,0,VALID,19.7043,VALID,119,VALID,0,
2014-10-09, 03:27:05,VALID,916.95,VALID,0,VALID,97.3053,VALID,0,VALID,19.7043,VALID,119,VALID,0,
2014-10-09, 03:28:05,VALID,916.961,VALID,0,VALID,97.29,VALID,0,VALID,19.7028,VALID,119,VALID,0,
2014-10-09, 03:29:05,VALID,916.957,VALID,0,VALID,97.29,VALID,0,VALID,19.7043,VALID,119,VALID,0,
2014-10-09, 03:30:05,VALID,916.921,VALID,0,VALID,97.2824,VALID,0,VALID,19.6833,VALID,119,VALID,0,
2014-10-09, 03:31:05,VALID,916.893,VALID,0,VALID,97.2672,VALID,0,VALID,19.7028,VALID,119,VALID,0,
2014-10-09, 03:32:05,VALID,916.886,VALID,0,VALID,97.29,VALID,0,VALID,19.7223,VALID,119,VALID,0,
2014-10-09, 03:33:05,VALID,916.907,VALID,0,VALID,97.2519,VALID,0,VALID,19.7223,VALID,120,VALID,0,
2014-10-09, 03:34:05,VALID,916.894,VALID,0,VALID,97.2443,VALID,0,VALID,19.7433,VALID,119,VALID,0,
2014-10-09, 03:35:05,VALID,916.911,VALID,0,VALID,97.2595,VALID,0,VALID,19.7223,VALID,119,VALID,0,
2014-10-09, 03:36:05,VALID,916.906,VALID,0,VALID,97.2595,VALID,0,VALID,19.6833,VALID,120,VALID,0,
2014-10-09, 03:37:05,VALID,916.888,VALID,0,VALID,97.2443,VALID,0,VALID,19.6833,VALID,119,VALID,0,
2014-10-09, 03:38:05,VALID,916.89,VALID,0,VALID,97.2443,VALID,0,VALID,19.7043,VALID,119,VALID,0,
2014-10-09, 03:39:05,VALID,916.887,VALID,0,VALID,97.2443,VALID,0,VALID,19.7043,VALID,119,VALID,0,
2014-10-09, 03:40:05,VALID,916.889,VALID,0,VALID,97.2138,VALID,0,VALID,19.6833,VALID,119,VALID,0,
2014-10-09, 03:41:05,VALID,916.927,VALID,0,VALID,97.2138,VALID,0,VALID,19.6848,VALID,119,VALID,0,
2014-10-09, 03:42:05,VALID,916.904,VALID,0,VALID,97.1986,VALID,0,VALID,19.6833,VALID,120,VALID,0,
2014-10-09, 03:43:05,VALID,916.9,VALID,0,VALID,97.2214,VALID,0,VALID,19.7043,VALID,119,VALID,0,
2014-10-09, 03:44:05,VALID,916.877,VALID,0,VALID,97.2138,VALID,0,VALID,19.6833,VALID,119,VALID,0,
2014-10-09, 03:45:05,VALID,916.881,VALID,0,VALID,97.2138,VALID,0,VALID,19.6833,VALID,119,VALID,0,
2014-10-09, 03:46:05,VALID,916.883,VALID,0,VALID,97.1986,VALID,0,VALID,19.7028,VALID,120,VALID,0,
2014-10-09, 03:47:05,VALID,916.876,VALID,0,VALID,97.2062,VALID,0,VALID,19.7223,VALID,119,VALID,0,
2014-10-09, 03:48:05,VALID,916.876,VALID,0,VALID,97.1909,VALID,0,VALID,19.7028,VALID,120,VALID,0,
2014-10-09, 03:49:05,VALID,916.932,VALID,0,VALID,97.1833,VALID,0,VALID,19.6833,VALID,119,VALID,0,
2014-10-09, 03:50:05,VALID,916.955,VALID,0,VALID,97.1757,VALID,0,VALID,19.6848,VALID,119,VALID,0,
2014-10-09, 03:51:05,VALID,916.956,VALID,0,VALID,97.1528,VALID,0,VALID,19.6638,VALID,119,VALID,0,
2014-10-09, 03:52:05,VALID,916.963,VALID,0,VALID,97.1452,VALID,0,VALID,19.6653,VALID,119,VALID,0,
2014-10-09, 03:53:05,VALID,916.938,VALID,0,VALID,97.1147,VALID,0,VALID,19.6263,VALID,119,VALID,0,
2014-10-09, 03:54:05,VALID,916.944,VALID,0,VALID,97.0766,VALID,0,VALID,19.5873,VALID,117,VALID,0,
2014-10-09, 03:55:05,VALID,916.949,VALID,0,VALID,97.0766,VALID,0,VALID,19.5468,VALID,105,VALID,0,
2014-10-09, 03:56:05,VALID,916.894,VALID,0,VALID,97.0766,VALID,0,VALID,19.5483,VALID,99,VALID,0,
2014-10-09, 03:57:05,VALID,916.892,VALID,0,VALID,97.0766,VALID,0,VALID,19.4688,VALID,97,VALID,0,
2014-10-09, 03:58:05,VALID,916.833,VALID,0,VALID,97.0613,VALID,0,VALID,19.4493,VALID,97,VALID,0,
2014-10-09, 03:59:05,VALID,916.799,VALID,0,VALID,97.0537,VALID,0,VALID,19.4298,VALID,105,VALID,0,
2014-10-09, 04:00:05,VALID,916.84,VALID,0,VALID,97.069,VALID,0,VALID,19.4103,VALID,97,VALID,0,